{"data":{"norad_id":65060,"epoch":"2026-05-25T02:52:40.960128Z","epoch_age_seconds":58461,"freshness":"FRESH","line1":"1 65060U 25165E   26145.11991852  .00002106  00000+0  14989-3 0  9992","line2":"2 65060  97.4504 222.2382 0003046 119.9055 240.2475 15.05666155 46297","mean_motion":15.05666155,"eccentricity":0.0003046,"inclination_deg":97.4504,"raan_deg":222.2382,"arg_perigee_deg":119.9055,"mean_anomaly_deg":240.2475,"bstar":0.00014989,"rev_number":4629,"period_min":95.638730751705,"perigee_km":547.35145408757,"apogee_km":551.57174715506,"semimajor_km":6927.5986006213,"source":"CELESTRAK","updated_at":"2026-05-25T13:38:20.676605Z"}}